{"data":{"norad_id":62995,"epoch":"2026-05-25T04:15:06.199776Z","epoch_age_seconds":49891,"freshness":"FRESH","line1":"1 62995U 25031Q   26145.17715509  .00011264  00000+0  41810-3 0  9995","line2":"2 62995  43.0030  71.3207 0001546 275.0170  85.0505 15.27588933 72790","mean_motion":15.27588933,"eccentricity":0.0001546,"inclination_deg":43.003,"raan_deg":71.3207,"arg_perigee_deg":275.017,"mean_anomaly_deg":85.0505,"bstar":0.0004181,"rev_number":7279,"period_min":94.266197462691,"perigee_km":481.96161231924,"apogee_km":484.0830827895,"semimajor_km":6861.1593475544,"source":"CELESTRAK","updated_at":"2026-05-25T13:38:19.833037Z"}}